{"data":{"norad_id":26388,"epoch":"2026-05-24T17:26:38.620896Z","epoch_age_seconds":105464,"freshness":"FRESH","line1":"1 26388U 00034A   26144.72683589 -.00000202  00000+0  00000+0 0  9992","line2":"2 26388  12.6477  31.5213 0005190   5.3612 191.9576  1.00271478 94947","mean_motion":1.00271478,"eccentricity":0.000519,"inclination_deg":12.6477,"raan_deg":31.5213,"arg_perigee_deg":5.3612,"mean_anomaly_deg":191.9576,"bstar":0,"rev_number":9494,"period_min":1436.1013009103,"perigee_km":35764.7974841,"apogee_km":35808.564565209,"semimajor_km":42164.818024655,"source":"CELESTRAK","updated_at":"2026-05-25T13:38:13.810531Z"}}